Change the Weather History Date:

Thursday, August 22, 2013

  Actual Average Record
Temperature  
Mean Temperature 72 °F -  
Max Temperature 75 °F 81 °F 96 °F (1955)
Min Temperature 69 °F 54 °F 38 °F (1982)
Cooling Degree Days 7    
Growing Degree Days 22 (Base 50)    
Moisture  
Dew Point 68 °F    
Average Humidity 89    
Maximum Humidity 94    
Minimum Humidity 78    
Precipitation  
Precipitation 0.40 in - - ()
Sea Level Pressure  
Sea Level Pressure 30.00 in    
Wind  
Wind Speed 1 mph (WSW)    
Max Wind Speed 7 mph    
Max Gust Speed 16 mph    
Visibility 6 miles    
Events Rain    
Averages and records for this station are not official NWS values.
T = Trace of Precipitation, MM = Missing Value Source: NWS Daily Summary

Daily Weather History Graph

Daily Weather History Graph

Search for Another Location

Airport or City:

Trip Planner

Search our weather history database for the weather conditions in past years. The results will help you decide how hot, cold, wet, or windy it might be!

Date:

Astronomy

Aug. 22, 2013 Rise Set
Actual Time 6:14 AM EDT 7:44 PM EDT
Civil Twilight 5:45 AM EDT 8:13 PM EDT
Nautical Twilight 5:10 AM EDT 8:48 PM EDT
Astronomical Twilight 4:33 AM EDT 9:25 PM EDT
Moon 8:25 PM EDT (8/22) 8:01 AM EDT (8/22)
Length of Visible Light 14h 28m
Length of Day
13h 30m
Waning Gibbous, 97% of the Moon is Illuminated
Aug 22
Waning Gibbous
Aug 28
Last Quarter
Sep 5
New
Sep 12
First Quarter
Sep 19
Full

Hourly Weather History & Observations

Time (EDT) Temp. Dew Point Humidity Pressure Visibility Wind Dir Wind Speed Gust Speed Precip Events Conditions
12:53 AM 69.1 °F 63.0 °F 81% 30.09 in 8.0 mi Calm Calm - N/A   Clear
1:53 AM 70.0 °F 63.0 °F 78% 30.09 in 7.0 mi Calm Calm - N/A   Clear
2:53 AM 69.1 °F 64.0 °F 84% 30.08 in 7.0 mi Calm Calm - N/A   Clear
3:53 AM 69.1 °F 64.9 °F 87% 30.07 in 6.0 mi Calm Calm - N/A   Scattered Clouds
4:53 AM 72.0 °F 66.9 °F 84% 30.06 in 7.0 mi Calm Calm - N/A   Scattered Clouds
5:53 AM 72.0 °F 66.9 °F 84% 30.04 in 7.0 mi Calm Calm - N/A   Mostly Cloudy
6:53 AM 70.0 °F 66.0 °F 87% 30.05 in 5.0 mi Calm Calm - N/A   Mostly Cloudy
7:53 AM 72.0 °F 68.0 °F 87% 30.04 in 5.0 mi Calm Calm - N/A   Mostly Cloudy
8:26 AM 73.4 °F 68.0 °F 83% 30.04 in 6.0 mi Calm Calm - N/A   Haze
8:51 AM 73.4 °F 69.8 °F 88% 30.04 in 6.0 mi Variable 3.5 mph - N/A   Mostly Cloudy
8:53 AM 73.0 °F 69.1 °F 87% 30.06 in 6.0 mi SW 3.5 mph - N/A   Mostly Cloudy
9:12 AM 73.4 °F 69.8 °F 88% 30.06 in 9.0 mi SSW 6.9 mph 16.1 mph 0.00 in Rain Light Rain
9:25 AM 71.6 °F 69.8 °F 94% 30.05 in 4.0 mi Variable 3.5 mph - 0.00 in Rain Light Rain
9:43 AM 71.6 °F 69.8 °F 94% 30.04 in 2.0 mi Calm Calm - 0.05 in Rain Rain
9:53 AM 70.0 °F 68.0 °F 93% 30.05 in 3.0 mi Calm Calm - 0.06 in Rain Light Rain
10:30 AM 69.8 °F 68.0 °F 94% 30.05 in 2.5 mi West 4.6 mph - 0.04 in Rain Rain
10:53 AM 70.0 °F 66.9 °F 90% 30.05 in 2.5 mi WNW 3.5 mph - 0.10 in Rain Rain
11:09 AM 69.8 °F 66.2 °F 88% 30.04 in 4.0 mi NW 5.8 mph - 0.02 in Rain Light Rain
11:28 AM 69.8 °F 68.0 °F 94% 30.04 in 2.5 mi Calm Calm - 0.05 in Rain Light Rain
11:53 AM 70.0 °F 68.0 °F 93% 30.05 in 2.5 mi Calm Calm - 0.12 in Rain Rain
12:12 PM 69.8 °F 68.0 °F 94% 30.02 in 1.5 mi Calm Calm - 0.05 in Rain Rain
12:21 PM 69.8 °F 68.0 °F 94% 30.02 in 3.0 mi Calm Calm - 0.07 in Rain Rain
12:34 PM 69.8 °F 68.0 °F 94% 30.02 in 2.5 mi Calm Calm - 0.09 in Rain Light Rain
12:42 PM 69.8 °F 68.0 °F 94% 30.01 in 6.0 mi Calm Calm - 0.10 in Rain Light Rain
12:53 PM 70.0 °F 68.0 °F 93% 30.02 in 7.0 mi Calm Calm - 0.10 in Rain Light Rain
1:53 PM 70.0 °F 68.0 °F 93% 30.01 in 10.0 mi Variable 3.5 mph - 0.02 in   Mostly Cloudy
2:03 PM 71.6 °F 68.0 °F 88% 29.99 in 10.0 mi SSW 3.5 mph - N/A   Overcast
2:53 PM 71.1 °F 68.0 °F 90% 29.98 in 10.0 mi SSW 3.5 mph - 0.00 in Rain Light Rain
3:07 PM 71.6 °F 68.0 °F 88% 29.95 in 10.0 mi Calm Calm - 0.00 in   Mostly Cloudy
3:53 PM 72.0 °F 68.0 °F 87% 29.96 in 10.0 mi WNW 3.5 mph - 0.00 in   Scattered Clouds
4:04 PM 73.4 °F 69.8 °F 88% 29.94 in 10.0 mi Calm Calm - N/A   Mostly Cloudy
4:22 PM 73.4 °F 69.8 °F 88% 29.93 in 10.0 mi Calm Calm - N/A   Scattered Clouds
4:53 PM 73.9 °F 70.0 °F 87% 29.94 in 10.0 mi WSW 3.5 mph - N/A   Clear
5:02 PM 73.4 °F 69.8 °F 88% 29.92 in 10.0 mi South 3.5 mph - N/A   Partly Cloudy
5:53 PM 75.9 °F 70.0 °F 82% 29.91 in 10.0 mi Variable 5.8 mph - N/A   Mostly Cloudy
6:53 PM 75.9 °F 70.0 °F 82% 29.91 in 8.0 mi Calm Calm - N/A   Clear
7:53 PM 73.9 °F 71.1 °F 91% 29.91 in 6.0 mi Calm Calm - N/A   Clear
8:53 PM 73.0 °F 71.1 °F 93% 29.92 in 7.0 mi SSW 4.6 mph - N/A   Clear
9:53 PM 73.0 °F 70.0 °F 90% 29.92 in 7.0 mi Calm Calm - N/A   Clear
10:53 PM 72.0 °F 69.1 °F 91% 29.92 in 6.0 mi Calm Calm - N/A   Partly Cloudy
11:53 PM 71.1 °F 66.9 °F 87% 29.91 in 7.0 mi Calm Calm - N/A   Partly Cloudy